Skip Page Navigation
NASA JPL Caltech
NASA Logo - Jet Propulsion Laboratory + View the NASA Portal
+ Near-Earth Object (NEO) Program
Search JPL
JPL Home Earth Solar System Stars & Galaxies Technology
JPL Solar System Dynamics
BODIES ORBITS EPHEMERIDES TOOLS PHYSICAL DATA DISCOVERY FAQ SITE MAP
JPL Small-Body Database Browser
Search: [ help ]  
5745 (1991 AN)
Classification: Main-belt Asteroid          SPK-ID: 2005745
Ephemeris | Orbit Diagram | Orbital Elements | Physical Parameters | Discovery Circumstances ]

[ show orbit diagram ]
Orbital Elements at Epoch 2457000.5 (2014-Dec-09.0) TDB
Reference: JPL 15 (heliocentric ecliptic J2000)
 Element Value Uncertainty (1-sigma)   Units 
e .1594175939581661 5.1946e-08  
a 2.190761964338553 1.0443e-08 AU
q 1.841515963048635 1.1523e-07 AU
i 4.88665585841864 5.732e-06 deg
node 23.23480081222028 5.4017e-05 deg
peri 28.12013771409476 5.7665e-05 deg
M 180.4135797215982 2.0787e-05 deg
tp 2457591.329549823104
(2016-Jul-21.82954982)
7.113e-05 JED
period 1184.380409201229
3.24
8.4689e-06
2.319e-08
d
yr
n .3039563954310858 2.1734e-09 deg/d
Q 2.540007965628471 1.2108e-08 AU
  Orbit Determination Parameters
   # obs. used (total)      1118  
   data-arc span      31632 days (86.60 yr)  
   first obs. used      1928-10-15  
   last obs. used      2015-05-24  
   planetary ephem.      DE431  
   SB-pert. ephem.      SB431-BIG16  
   condition code      0  
   fit RMS      .52036  
   data source      ORB  
   producer      Otto Matic  
   solution date      2015-Jun-04 15:52:31  

Additional Information
 Earth MOID = .853163 AU 
 T_jup = 3.652 
[ show covariance matrix ]

Ephemeris | Orbit Diagram | Orbital Elements | Physical Parameters | Discovery Circumstances ]

Physical Parameter Table
Parameter Symbol Value Units Sigma Reference Notes
absolute magnitude H 13.8 mag n/a MPO247419  

5745 (1991 AN)          Discovered 1991-Jan-09 by Hioki and Hayakawa at Okutama
Reference: DISCOVERY.DBLast Updated: 2003-08-29

Alternate Designations
 1991 AN = 1928 TE = 1980 TC15 = 1983 RB9 
Ephemeris | Orbit Diagram | Orbital Elements | Physical Parameters | Discovery Circumstances ]
ABOUT SSD CREDITS/AWARDS PRIVACY/COPYRIGHT GLOSSARY LINKS
FirstGov 2015-Jul-06 11:22 UT
(server date/time)  
NASA Home Page
Site Manager:   Ryan S. Park
Webmaster  Alan B. Chamberlin